GW1438 Weather Reports


Display with metric or nautical units.
time (UTC)temp
F
wind
direction
speed
MPH
gust
MPH
rain 1hr
in
rain 24hr
in
rain mn
in
humidity
%
barometer
mb
20260510060827 52 215 0.0 0.0 0.00 0.00 0.00 96 1012.0
20260510060324 53 215 0.0 0.0 0.00 0.00 0.00 96 1011.9
20260510055821 53 215 0.0 0.0 0.00 0.00 0.00 96 1011.9
20260510055320 53 215 0.0 0.0 0.00 0.00 0.00 96 1012.0
20260510054819 53 215 0.0 0.0 0.00 0.00 0.00 96 1012.2
20260510054315 53 215 0.0 0.0 0.00 0.00 0.00 96 1012.0
20260510053810 53 215 0.0 0.0 0.00 0.00 0.00 96 1012.0
20260510053306 54 215 0.0 0.0 0.00 0.00 0.00 96 1012.2
20260510052802 54 215 0.0 0.0 0.00 0.00 0.00 95 1012.1
20260510052258 54 215 0.0 0.0 0.00 0.00 0.00 95 1012.4
20260510051754 54 215 0.0 0.0 0.00 0.00 0.00 95 1012.3
20260510051251 54 217 0.0 0.0 0.00 0.00 0.00 95 1012.5
20260510050748 55 217 0.0 0.0 0.00 0.00 0.00 95 1012.2
20260510050245 55 217 0.0 0.0 0.00 0.00 0.00 95 1012.2
20260510045742 55 217 0.0 0.0 0.00 0.00 0.00 95 1012.1
20260510045238 55 215 0.0 0.0 0.00 0.00 0.00 94 1012.4
20260510044735 55 215 0.0 0.0 0.00 0.00 0.00 94 1012.2
20260510044233 55 215 0.0 0.0 0.00 0.00 0.00 93 1012.2
20260510043728 55 215 0.0 0.0 0.00 0.00 0.00 93 1012.5
20260510043225 55 215 0.0 0.0 0.00 0.00 0.00 93 1012.4
20260510042722 55 215 0.0 0.0 0.00 0.00 0.00 93 1012.3
20260510042218 56 215 0.0 0.0 0.00 0.00 0.00 93 1012.2
20260510041715 56 215 0.0 0.0 0.00 0.00 0.00 92 1012.3
20260510041212 56 216 0.0 0.0 0.00 0.00 0.00 92 1012.3
20260510040709 56 216 0.0 0.0 0.00 0.00 0.00 92 1012.2
20260510040206 57 215 0.0 0.0 0.00 0.00 0.00 91 1012.3
20260510035701 57 215 0.0 0.0 0.00 0.00 0.00 92 1012.3
20260510035157 56 218 0.0 0.0 0.00 0.00 0.00 91 1012.0
20260510034653 57 218 0.0 0.0 0.00 0.00 0.00 91 1012.0
20260510034151 57 218 0.0 0.0 0.00 0.00 0.00 90 1012.0
20260510033647 57 218 0.0 0.0 0.00 0.00 0.00 90 1011.9
20260510033145 57 218 0.0 0.0 0.00 0.00 0.00 90 1011.9
20260510032641 57 218 0.0 0.0 0.00 0.00 0.00 89 1012.1
20260510032136 57 218 0.0 0.0 0.00 0.00 0.00 89 1012.2
20260510031631 58 218 0.0 0.0 0.00 0.00 0.00 89 1012.1
20260510031129 58 218 0.0 0.0 0.00 0.00 0.00 89 1012.1
20260510030623 58 218 0.0 0.0 0.00 0.00 0.00 89 1012.0
20260510030121 58 218 0.0 0.0 0.00 0.00 0.00 89 1012.2
20260510025618 58 217 0.0 0.0 0.00 0.00 0.00 89 1012.0
20260510025115 58 220 0.0 0.0 0.00 0.00 0.00 88 1012.1
20260510024612 58 218 0.0 0.0 0.00 0.00 0.00 88 1012.0
20260510024108 58 218 0.0 0.0 0.00 0.00 0.00 87 1012.0
20260510023604 58 221 0.0 0.0 0.00 0.00 0.00 87 1011.9
20260510023102 58 221 0.0 0.0 0.00 0.00 0.00 87 1011.7
20260510022601 58 215 0.0 0.0 0.00 0.00 0.00 87 1011.9
20260510022056 58 212 0.0 0.0 0.00 0.00 0.00 87 1011.6
20260510021552 58 217 0.0 0.0 0.00 0.00 0.00 87 1011.9
20260510021050 58 222 0.0 0.0 0.00 0.00 0.00 87 1011.7
20260510020544 59 217 0.0 0.0 0.00 0.00 0.00 86 1011.7
20260510020040 59 217 0.0 0.0 0.00 0.00 0.00 86 1011.6
20260510015536 59 217 0.0 0.0 0.00 0.00 0.00 85 1011.6
20260510015032 59 217 0.0 0.0 0.00 0.00 0.00 85 1011.6
20260510014529 59 218 0.0 0.0 0.00 0.00 0.00 85 1011.7
20260510014026 60 217 0.0 0.0 0.00 0.00 0.00 85 1011.7
20260510013520 60 221 0.0 0.0 0.00 0.00 0.00 84 1011.5
20260510013016 60 221 0.0 0.0 0.00 0.00 0.00 84 1011.3
20260510012511 60 222 0.0 0.0 0.00 0.00 0.00 84 1011.4
20260510012007 60 222 0.0 0.0 0.00 0.00 0.00 84 1011.2
20260510011501 60 222 0.0 0.0 0.00 0.00 0.00 84 1011.2
20260510010957 60 213 0.0 0.0 0.00 0.00 0.00 83 1010.9
20260510010455 61 221 0.0 0.0 0.00 0.00 0.00 82 1011.0
20260510005951 61 221 0.0 0.0 0.00 0.00 0.00 82 1011.0
20260510005447 61 221 0.0 0.0 0.00 0.00 0.00 81 1010.9
20260510004945 62 218 0.0 0.0 0.00 0.00 0.00 80 1010.9
20260510004442 62 218 0.0 0.0 0.00 0.00 0.00 80 1010.8
20260510003940 63 217 0.0 0.0 0.00 0.00 0.00 79 1010.9
20260510003437 63 221 0.0 0.0 0.00 0.00 0.00 78 1010.9
20260510002937 63 221 0.0 0.0 0.00 0.00 0.00 77 1011.0
20260510002433 64 221 0.0 0.0 0.00 0.00 0.00 76 1011.0
20260510001929 64 217 0.0 0.0 0.00 0.00 0.00 75 1010.7
20260510001427 65 219 0.0 0.0 0.00 0.00 0.00 75 1010.5
20260510000924 65 212 0.0 0.0 0.00 0.00 0.00 74 1010.5
20260510000421 66 215 0.0 0.0 0.00 0.00 0.00 74 1010.6
20260509235917 66 215 0.0 0.0 0.00 0.00 0.00 73 1010.6
20260509235409 67 215 0.0 0.0 0.00 0.00 0.00 71 1010.5
20260509234904 67 216 0.0 0.0 0.00 0.00 0.00 69 1010.6
20260509234402 67 216 0.0 0.0 0.00 0.00 0.00 68 1010.4
20260509233900 67 214 0.0 0.0 0.00 0.00 0.00 67 1010.5
20260509233357 68 217 0.0 0.0 0.00 0.00 0.00 65 1010.4
20260509232852 68 221 0.0 0.0 0.00 0.00 0.00 62 1010.3
20260509232351 69 221 0.0 0.0 0.00 0.00 0.00 60 1010.4
20260509231846 69 221 0.0 0.0 0.00 0.00 0.00 59 1010.4
20260509231343 69 221 0.0 0.0 0.00 0.00 0.00 61 1010.4
20260509230841 70 221 0.0 0.0 0.00 0.00 0.00 60 1010.2
20260509230338 70 222 0.0 0.0 0.00 0.00 0.00 62 1010.3
20260509225832 70 212 0.0 0.0 0.00 0.00 0.00 55 1010.4
20260509225330 71 215 0.0 0.0 0.00 0.00 0.00 57 1010.2
20260509224821 71 204 1.0 1.0 0.00 0.00 0.00 55 1010.4
20260509224317 71 227 0.0 0.0 0.00 0.00 0.00 57 1010.1
20260509223814 72 228 0.0 1.0 0.00 0.00 0.00 53 1010.2
20260509223310 72 221 0.0 0.0 0.00 0.00 0.00 53 1010.4
20260509222807 73 234 1.0 1.0 0.00 0.00 0.00 50 1010.3
20260509222306 75 237 1.0 1.0 0.00 0.00 0.00 49 1010.2
20260509221758 75 252 1.0 1.0 0.00 0.00 0.00 47 1010.3
20260509221256 75 227 0.0 0.0 0.00 0.00 0.00 48 1010.1
20260509220751 73 232 0.0 0.0 0.00 0.00 0.00 48 1010.3
20260509220248 71 232 0.0 0.0 0.00 0.00 0.00 52 1010.2
20260509215743 71 217 0.0 0.0 0.00 0.00 0.00 54 1010.3
20260509215240 71 219 0.0 0.0 0.00 0.00 0.00 55 1010.3
20260509214737 71 210 1.0 1.0 0.00 0.00 0.00 52 1010.2
20260509214234 71 226 0.0 0.0 0.00 0.00 0.00 54 1010.2
20260509213731 73 346 1.0 1.0 0.00 0.00 0.00 50 1010.3
20260509213226 73 237 0.0 0.0 0.00 0.00 0.00 49 1010.5
20260509212724 73 230 0.0 0.0 0.00 0.00 0.00 49 1010.3
20260509212221 73 253 2.0 2.0 0.00 0.00 0.00 49 1010.3
20260509211717 74 19 2.0 2.0 0.00 0.00 0.00 48 1010.3
20260509211214 73 280 1.0 1.0 0.00 0.00 0.00 52 1010.1
20260509210710 71 232 0.0 1.0 0.00 0.00 0.00 55 1010.2
20260509210208 71 223 0.0 0.0 0.00 0.00 0.00 56 1010.1
20260509205707 71 232 1.0 1.0 0.00 0.00 0.00 55 1010.3
20260509205206 72 169 1.0 2.0 0.00 0.00 0.00 54 1010.1
20260509204703 74 350 2.0 2.0 0.00 0.00 0.00 55 1010.2
20260509204159 74 243 2.0 2.0 0.00 0.00 0.00 53 1010.1
20260509203655 74 201 1.0 1.0 0.00 0.00 0.00 55 1010.3
20260509203154 74 193 1.0 1.0 0.00 0.00 0.00 54 1010.0
20260509202649 73 215 0.0 0.0 0.00 0.00 0.00 56 1010.2
20260509202144 73 256 1.0 2.0 0.00 0.00 0.00 56 1010.2
20260509201639 71 215 0.0 1.0 0.00 0.00 0.00 58 1010.2
20260509201137 70 260 1.0 1.0 0.00 0.00 0.00 57 1010.4
20260509200633 71 188 1.0 1.0 0.00 0.00 0.00 57 1010.2
20260509200128 71 232 0.0 1.0 0.00 0.00 0.00 59 1010.3
20260509195624 70 239 1.0 1.0 0.00 0.00 0.00 61 1010.4
20260509195119 71 273 2.0 2.0 0.00 0.00 0.00 55 1010.4
20260509194619 72 170 1.0 1.0 0.00 0.00 0.00 55 1010.5
20260509194117 71 243 1.0 1.0 0.00 0.00 0.00 55 1010.7
20260509193612 71 201 0.0 1.0 0.00 0.00 0.00 55 1010.6
20260509193108 71 273 1.0 2.0 0.00 0.00 0.00 56 1010.8
20260509192605 70 197 1.0 1.0 0.00 0.00 0.00 57 1010.9
20260509192100 70 217 0.0 0.0 0.00 0.00 0.00 58 1011.0
20260509191555 71 214 0.0 0.0 0.00 0.00 0.00 56 1011.1
20260509191051 71 220 0.0 0.0 0.00 0.00 0.00 59 1011.3
20260509190548 70 232 1.0 1.0 0.00 0.00 0.00 58 1011.2
20260509190046 70 228 0.0 0.0 0.00 0.00 0.00 59 1011.0
20260509185543 71 220 0.0 0.0 0.00 0.00 0.00 57 1011.0
20260509185039 70 214 0.0 0.0 0.00 0.00 0.00 59 1011.1
20260509184538 69 234 0.0 1.0 0.00 0.00 0.00 57 1011.1
20260509184033 70 186 0.0 1.0 0.00 0.00 0.00 60 1011.5
20260509183529 69 228 0.0 0.0 0.00 0.00 0.00 56 1011.4
20260509183025 69 247 1.0 1.0 0.00 0.00 0.00 58 1011.4
20260509182521 69 217 0.0 0.0 0.00 0.00 0.00 61 1011.3
20260509182019 68 227 0.0 0.0 0.00 0.00 0.00 61 1011.5
20260509181517 68 238 1.0 1.0 0.00 0.00 0.00 58 1011.4
20260509181014 67 219 0.0 0.0 0.00 0.00 0.00 60 1012.0
20260509180509 67 229 0.0 0.0 0.00 0.00 0.00 62 1011.8
20260509180008 67 216 0.0 0.0 0.00 0.00 0.00 60 1012.1
20260509175502 67 230 0.0 0.0 0.00 0.00 0.00 61 1012.1
20260509174959 66 245 1.0 1.0 0.00 0.00 0.00 61 1012.1
20260509174456 67 243 1.0 1.0 0.00 0.00 0.00 59 1012.1
20260509173950 68 215 0.0 0.0 0.00 0.00 0.00 59 1012.3
20260509173445 68 159 1.0 1.0 0.00 0.00 0.00 62 1012.3
20260509172942 68 271 0.0 0.0 0.00 0.00 0.00 60 1012.1
20260509172439 68 260 2.0 2.0 0.00 0.00 0.00 57 1012.2
20260509171935 67 229 0.0 0.0 0.00 0.00 0.00 62 1012.5
20260509171431 66 221 0.0 0.0 0.00 0.00 0.00 62 1012.5
20260509170927 66 213 0.0 1.0 0.00 0.00 0.00 62 1012.4
20260509170423 66 227 0.0 0.0 0.00 0.00 0.00 61 1012.5
20260509165919 66 220 0.0 0.0 0.00 0.00 0.00 63 1012.5
20260509165413 66 231 0.0 0.0 0.00 0.00 0.00 60 1012.6
20260509164909 65 232 0.0 0.0 0.00 0.00 0.00 60 1012.6
20260509164405 65 230 0.0 0.0 0.00 0.00 0.00 60 1012.4
20260509163901 66 229 1.0 1.0 0.00 0.00 0.00 61 1012.4
20260509163358 66 219 0.0 0.0 0.00 0.00 0.00 60 1012.3
20260509162857 66 230 0.0 0.0 0.00 0.00 0.00 60 1012.7
20260509162356 66 279 1.0 1.0 0.00 0.00 0.00 60 1012.5
20260509161852 66 230 0.0 0.0 0.00 0.00 0.00 60 1012.6
20260509161348 66 217 0.0 0.0 0.00 0.00 0.00 63 1012.8
20260509160844 65 150 0.0 1.0 0.00 0.00 0.00 63 1012.6
20260509160340 64 204 1.0 1.0 0.00 0.00 0.00 63 1012.7
20260509155835 64 173 1.0 2.0 0.00 0.00 0.00 62 1012.5
20260509155332 64 229 0.0 0.0 0.00 0.00 0.00 70 1012.8
20260509154828 64 245 1.0 1.0 0.00 0.00 0.00 62 1012.8
20260509154325 65 221 0.0 0.0 0.00 0.00 0.00 64 1012.8
20260509153822 65 219 0.0 1.0 0.00 0.00 0.00 62 1012.7
20260509153319 65 214 0.0 0.0 0.00 0.00 0.00 62 1012.6
20260509152815 66 240 0.0 1.0 0.00 0.00 0.00 57 1012.8
20260509152311 68 215 0.0 1.0 0.00 0.00 0.00 56 1012.7
20260509151809 68 203 1.0 1.0 0.00 0.00 0.00 54 1012.8
20260509151305 65 222 0.0 0.0 0.00 0.00 0.00 63 1013.0
20260509150804 64 230 0.0 0.0 0.00 0.00 0.00 62 1013.0
20260509150301 64 205 0.0 1.0 0.00 0.00 0.00 61 1013.0
20260509145758 63 217 0.0 0.0 0.00 0.00 0.00 64 1013.1
20260509145258 63 217 0.0 1.0 0.00 0.00 0.00 63 1013.1
20260509144754 63 193 1.0 1.0 0.00 0.00 0.00 63 1013.3
20260509144252 63 180 0.0 1.0 0.00 0.00 0.00 63 1013.3
20260509143748 62 213 0.0 0.0 0.00 0.00 0.00 64 1013.4
20260509143246 62 216 0.0 0.0 0.00 0.00 0.00 65 1013.4
20260509142742 61 197 0.0 0.0 0.00 0.00 0.00 63 1013.6
20260509142238 61 259 0.0 1.0 0.00 0.00 0.00 64 1013.4
20260509141734 62 255 1.0 1.0 0.00 0.00 0.00 64 1013.5
20260509141231 61 217 0.0 0.0 0.00 0.00 0.00 63 1013.3
20260509140728 61 217 0.0 0.0 0.00 0.00 0.00 63 1013.1
20260509140225 60 222 0.0 0.0 0.00 0.00 0.00 66 1013.0
20260509135722 60 212 0.0 0.0 0.00 0.00 0.00 65 1013.3
20260509135220 60 222 0.0 0.0 0.00 0.00 0.00 65 1013.4
20260509134717 61 154 0.0 0.0 0.00 0.00 0.00 65 1013.4
20260509134214 61 230 0.0 1.0 0.00 0.00 0.00 63 1013.4
20260509133712 61 217 0.0 1.0 0.00 0.00 0.00 63 1013.1
20260509133208 61 223 0.0 0.0 0.00 0.00 0.00 64 1013.6
20260509132707 60 147 1.0 1.0 0.00 0.00 0.00 61 1013.1
20260509132205 60 221 0.0 0.0 0.00 0.00 0.00 62 1013.5
20260509131701 60 309 0.0 1.0 0.00 0.00 0.00 63 1013.4
20260509131158 60 245 1.0 1.0 0.00 0.00 0.00 62 1013.4
20260509130654 60 204 1.0 1.0 0.00 0.00 0.00 61 1013.3
20260509130150 60 144 1.0 1.0 0.00 0.00 0.00 61 1013.4
20260509125647 61 193 1.0 2.0 0.00 0.00 0.00 60 1013.4
20260509125143 61 192 1.0 1.0 0.00 0.00 0.00 61 1013.3
20260509124640 61 221 0.0 0.0 0.00 0.00 0.00 63 1013.1
20260509124137 60 209 0.0 0.0 0.00 0.00 0.00 61 1013.4
20260509123635 60 173 1.0 2.0 0.00 0.00 0.00 61 1013.4
20260509123132 60 235 0.0 1.0 0.00 0.00 0.00 61 1013.3
20260509122627 59 313 2.0 2.0 0.00 0.00 0.00 61 1013.4
20260509122124 59 213 1.0 1.0 0.00 0.00 0.00 61 1013.1
20260509121621 59 186 1.0 1.0 0.00 0.00 0.00 62 1013.4
20260509121119 59 282 1.0 1.0 0.00 0.00 0.00 61 1013.1
20260509120617 58 193 1.0 1.0 0.00 0.00 0.00 61 1013.1
20260509120115 58 176 1.0 1.0 0.00 0.00 0.00 61 1013.1
20260509115612 59 269 1.0 1.0 0.00 0.00 0.00 60 1013.3
20260509115109 58 231 0.0 0.0 0.00 0.00 0.00 60 1013.1
20260509114607 58 353 1.0 2.0 0.00 0.00 0.00 60 1012.8
20260509114106 58 95 2.0 2.0 0.00 0.00 0.00 60 1013.0
20260509113604 58 148 1.0 1.0 0.00 0.00 0.00 59 1012.8
20260509113101 58 224 0.0 1.0 0.00 0.00 0.00 61 1012.9
20260509112557 58 214 0.0 0.0 0.00 0.00 0.00 60 1012.8
20260509112054 58 211 0.0 0.0 0.00 0.00 0.00 61 1012.8
20260509111552 57 225 1.0 1.0 0.00 0.00 0.00 61 1012.7
20260509111048 57 224 0.0 1.0 0.00 0.00 0.00 60 1012.5
20260509110545 57 218 0.0 0.0 0.00 0.00 0.00 60 1012.8
20260509110043 57 221 0.0 0.0 0.00 0.00 0.00 62 1012.7
20260509105541 57 214 0.0 0.0 0.00 0.00 0.00 62 1012.9
20260509105038 57 219 0.0 0.0 0.00 0.00 0.00 58 1012.8
20260509104535 58 213 0.0 0.0 0.00 0.00 0.00 57 1012.4
20260509104032 57 235 0.0 0.0 0.00 0.00 0.00 57 1012.4
20260509103529 57 290 0.0 1.0 0.00 0.00 0.00 57 1012.5
20260509103028 57 178 2.0 2.0 0.00 0.00 0.00 57 1012.3
20260509102524 57 213 0.0 0.0 0.00 0.00 0.00 57 1012.6
20260509102021 57 202 1.0 1.0 0.00 0.00 0.00 56 1012.5
20260509101518 57 236 0.0 1.0 0.00 0.00 0.00 56 1012.5
20260509101015 58 269 0.0 1.0 0.00 0.00 0.00 56 1012.5
20260509100512 58 218 0.0 0.0 0.00 0.00 0.00 57 1012.3
20260509100009 58 284 1.0 1.0 0.00 0.00 0.00 56 1012.3
20260509095505 58 207 0.0 0.0 0.00 0.00 0.00 56 1012.4
20260509095003 58 289 0.0 1.0 0.00 0.00 0.00 56 1012.3
20260509094459 58 229 0.0 0.0 0.00 0.00 0.00 56 1012.6
20260509093956 58 205 0.0 1.0 0.00 0.00 0.00 56 1012.5
20260509093454 58 70 1.0 1.0 0.00 0.00 0.00 54 1012.6
20260509092952 58 198 1.0 2.0 0.00 0.00 0.00 55 1012.5
20260509092449 58 357 1.0 1.0 0.00 0.00 0.00 55 1012.6
20260509091948 58 201 0.0 0.0 0.00 0.00 0.00 55 1012.7
20260509091444 58 206 0.0 1.0 0.00 0.00 0.00 54 1012.6
20260509090941 58 226 0.0 0.0 0.00 0.00 0.00 55 1012.8
20260509090439 58 200 0.0 1.0 0.00 0.00 0.00 54 1012.6
20260509085936 58 265 0.0 1.0 0.00 0.00 0.00 55 1012.6
20260509085433 58 69 1.0 1.0 0.00 0.00 0.00 56 1012.6
20260509084929 58 213 0.0 1.0 0.00 0.00 0.00 56 1012.8
20260509084426 58 191 0.0 1.0 0.00 0.00 0.00 56 1012.9
20260509083924 58 109 1.0 1.0 0.00 0.00 0.00 56 1013.0
20260509083421 58 250 0.0 1.0 0.00 0.00 0.00 56 1012.9
20260509082917 58 297 1.0 2.0 0.00 0.00 0.00 56 1013.0
20260509082415 58 20 1.0 1.0 0.00 0.00 0.00 56 1013.3
20260509081911 58 153 0.0 1.0 0.00 0.00 0.00 55 1013.1
20260509081409 58 165 1.0 2.0 0.00 0.00 0.00 56 1013.4
20260509080906 58 211 0.0 1.0 0.00 0.00 0.00 57 1013.3
20260509080404 58 37 1.0 1.0 0.00 0.00 0.00 56 1013.4
20260509075902 58 217 0.0 0.0 0.00 0.00 0.00 57 1013.4
20260509075359 58 222 0.0 0.0 0.00 0.00 0.00 56 1013.4
20260509074856 58 284 1.0 1.0 0.00 0.00 0.00 56 1013.5
20260509074354 58 240 1.0 1.0 0.00 0.00 0.00 56 1013.4
20260509073850 58 229 0.0 0.0 0.00 0.00 0.00 56 1013.4
20260509073346 58 200 0.0 1.0 0.00 0.00 0.00 56 1013.4
20260509072843 58 192 0.0 0.0 0.00 0.00 0.00 56 1013.5
20260509072339 58 55 2.0 2.0 0.00 0.00 0.00 56 1013.4
20260509071836 58 185 1.0 1.0 0.00 0.00 0.00 56 1013.4
20260509071333 58 212 0.0 1.0 0.00 0.00 0.00 56 1013.0
20260509070830 57 229 1.0 1.0 0.00 0.00 0.00 57 1013.1
20260509070327 57 215 0.0 1.0 0.00 0.00 0.00 57 1013.1
20260509065823 57 226 0.0 0.0 0.00 0.00 0.00 57 1013.3
20260509065319 57 246 0.0 1.0 0.00 0.00 0.00 58 1013.1
20260509064815 57 228 0.0 0.0 0.00 0.00 0.00 57 1013.3
20260509064313 57 286 0.0 1.0 0.00 0.00 0.00 58 1013.3
20260509063811 57 174 0.0 1.0 0.00 0.00 0.00 58 1013.4
20260509063306 57 233 0.0 0.0 0.00 0.00 0.00 59 1013.4
20260509062804 57 223 0.0 0.0 0.00 0.00 0.00 60 1013.5
20260509062301 57 211 0.0 1.0 0.00 0.00 0.00 59 1013.6
20260509061758 57 221 0.0 0.0 0.00 0.00 0.00 59 1013.7
20260509061256 57 250 0.0 0.0 0.00 0.00 0.00 59 1013.7